Location: Étavigny
(49.1201°N, 2.9800°E)
Time: 12:03:00
(UTC+00:00)

Cosmos 2251 Rocket - Visible Passes

Search period start: 28 September 2023 00:00
Search period end: 08 October 2023 00:00
Orbit: 764 x 790 km, 74.0° (Epoch: 28 September)

Date Brightness Start Highest point End Pass type
(mag) Time Alt. Az. Time Alt. Az. Time Alt. Az.
28 Sep 5.7 20:25:13 13° NE 20:25:13 13° NE 20:25:48 10° NNE visible
28 Sep 5.8 22:05:38 21° NNW 22:05:38 21° NNW 22:07:48 10° N visible
29 Sep 5.7 04:58:30 10° N 05:03:00 28° NE 05:07:28 10° ESE visible
29 Sep 5.8 19:50:59 11° NE 19:50:59 11° NE 19:51:11 10° NE visible
29 Sep 5.5 21:31:23 24° N 21:31:23 24° N 21:33:39 10° NNE visible
30 Sep 6.1 04:24:28 10° N 04:28:20 20° NE 04:32:11 10° E visible
30 Sep 5.1 20:56:56 28° N 20:56:56 28° N 20:59:25 10° NNE visible
30 Sep 6.3 22:37:19 13° NW 22:37:36 13° NW 22:40:10 10° NNW visible
01 Oct 6.3 03:50:39 10° N 03:53:35 15° NE 03:56:30 10° ENE visible
01 Oct 4.6 20:22:05 35° NNE 20:22:05 35° NNE 20:25:05 10° NNE visible
01 Oct 5.9 22:02:25 18° NW 22:02:49 18° NW 22:06:27 10° N visible
02 Oct 6.6 03:17:26 10° NNE 03:18:44 11° NE 03:20:03 10° NE visible
02 Oct 4.7 04:57:22 10° NNW 05:02:26 46° ENE 05:07:28 10° SE visible
02 Oct 3.4 19:40:16 10° S 19:45:28 61° ESE 19:50:39 10° NNE visible
02 Oct 5.5 21:23:47 10° WSW 21:28:08 25° NW 21:32:28 10° N visible
03 Oct 5.4 04:23:11 10° N 04:27:53 32° NE 04:32:34 10° ESE visible
03 Oct 3.9 19:06:19 10° S 19:11:13 40° ESE 19:16:06 10° NE visible
03 Oct 4.9 20:48:42 10° WSW 20:53:32 35° WNW 20:58:21 10° N visible
04 Oct 5.9 03:49:06 10° N 03:53:16 23° NE 03:57:24 10° ESE visible
04 Oct 4.4 18:32:44 10° SSE 18:37:03 26° E 18:41:22 10° NE visible
04 Oct 4.3 20:13:52 10° SW 20:19:00 51° WNW 20:24:09 10° NNE visible
04 Oct 6.5 22:00:42 10° WNW 22:02:36 12° NW 22:04:30 10° NNW visible
05 Oct 6.3 03:15:11 10° N 03:18:33 17° NE 03:21:54 10° E visible
05 Oct 3.6 04:56:25 10° NNW 05:01:41 82° ENE 05:06:55 10° SSE visible
05 Oct 4.9 17:59:38 10° SE 18:02:58 17° E 18:06:18 10° NE visible
05 Oct 3.6 19:39:18 10° SSW 19:44:34 76° WNW 19:49:52 10° NNE visible
05 Oct 6.2 21:24:33 10° W 21:27:47 16° NW 21:31:00 10° N visible
06 Oct 6.5 02:41:36 10° NNE 02:43:44 12° NE 02:45:52 10° ENE visible
06 Oct 4.3 04:22:06 10° NNW 04:27:16 55° ENE 04:32:23 10° SE visible
06 Oct 3.4 19:04:58 10° SSW 19:10:14 72° ESE 19:15:29 10° NNE visible
06 Oct 5.8 20:48:59 10° W 20:53:03 22° NW 20:57:07 10° N visible
07 Oct 5.0 03:47:53 10° N 03:52:45 37° ENE 03:57:36 10° SE visible
07 Oct 3.7 18:30:55 10° S 18:35:57 47° ESE 18:40:59 10° NNE visible
07 Oct 5.3 20:13:46 10° WSW 20:18:24 30° NW 20:23:03 10° N visible
